Location: Seattle
(47.6064°N, 122.3308°W)
Time: 01:06:15
(UTC-08:00)

A-11 Canister half - Pass Details

Date: 02 December 2020
Orbit: 1524 x 1684 km, 47.3° (Epoch: 21 January)

Event Time Altitude Azimuth Distance (km) Brightness Sun altitude
Rises 11:51:18 0° 291° (WNW) 4,892 11.4 20.3°
Reaches altitude 10° 11:54:52 10° 283° (WNW) 3,881 11.0 20.3°
Maximum altitude 12:03:14 33° 225° (SW) 2,457 11.0 20.3°
Drops below altitude 10° 12:11:23 10° 166° (SSE) 3,758 12.7 20.2°
Sets 12:14:48 0° 157° (SSE) 4,718 12.6 20.2°
